Regional Weather Roundup
Issued by NWS Portland, ME

Home | Current Version | Previous Version | Text Only | Print | Product List | Glossary On
Versions: 1 2 3 4 5 6 7 8 9 10 11 12 13 14 15 16 17 18 19 20 21 22 23 24 25 26 27 28 29 30 31 32 33 34 35 36 37 38 39 40 41 42 43 44 45 46 47 48 49 50
000
ASUS41 KGYX 060510
RWRGYX
WEATHER ROUNDUP FOR MAINE AND NEW HAMPSHIRE
NATIONAL WEATHER SERVICE GRAY ME
100 AM EDT WED MAY 06 2015

MEZ002-005-006-010-012-015-018-020-021-024-026-027-029-060600-
MAINE

CITY           SKY/WX    TMP DP  RH WIND       PRES   REMARKS
PORTLAND       MOCLDY    51  41  68 W3        30.24R
SANFORD        MOCLDY    45  37  76 CALM      30.26R
BAR HARBOR     MOCLDY    48  39  71 NW6G21    30.22R
WISCASSET      MOCLDY    44  38  79 CALM      30.24R
ROCKLAND       MOCLDY    46  36  66 W6        30.21R
FRYEBURG       MOCLDY    48  35  60 CALM      30.25R
AUGUSTA        PTCLDY    57  25  29 NW6       30.23R
WATERVILLE     PTCLDY    57  28  33 W8        30.20R
BANGOR         PTCLDY    54  28  36 NW3       30.22R
GREENVILLE       N/A     45  32  60 NW5       30.19R
MILLINOCKET    MOCLDY    47  35  63 CALM      30.21R
HOULTON        PTCLDY    45  36  70 SW6       30.16R
PRESQUE ISLE   CLEAR     45  30  57 W7        30.16S
FRENCHVILLE    CLEAR     42  33  70 NW7       30.13R
CARIBOU        CLEAR     44  33  65 W6        30.14R
$$

NHZ002-005-008-009-011-012-014-060600-
NEW HAMPSHIRE

CITY           SKY/WX    TMP DP  RH WIND       PRES   REMARKS
PORTSMOUTH     PTCLDY    53  46  77 SW2       30.23R
ROCHESTER      PTCLDY    50  45  83 NW3       30.25R
NASHUA         PTCLDY    55  46  71 NW5       30.26R
MANCHESTER     PTCLDY    57  45  64 N6        30.24R
CONCORD        PTCLDY    47  36  65 CALM      30.26R
LACONIA        PTCLDY    52  37  58 SW5       30.24S
PLYMOUTH       FAIR      48  41  76 NE3       30.26R
BERLIN         PTCLDY    36  29  75 CALM      30.25R
WHITEFIELD     PTCLDY    37  32  82 CALM      30.26R
JAFFREY        PTCLDY    47  38  71 CALM      30.28R
KEENE          CLEAR     48  39  71 CALM      30.27R
LEBANON        PTCLDY    45  37  73 CALM      30.27R
MT WASHINGTON  PTCLDY    32  18  55 NW47        N/A  WCI  15
$$

VTZ005-007-008-060600-
VERMONT

CITY           SKY/WX    TMP DP  RH WIND       PRES   REMARKS
ST JOHNSBURY     N/A     45  36  70 MISG      30.25R
MONTPELIER     PTCLDY    46  31  55 CALM      30.30S
BURLINGTON     FAIR      48  36  63 E3        30.26R
$$

MAZ007-012-024-CTZ003-RIZ002-NYZ038-NYZ072-060600-
SOUTHERN NEW ENGLAND AND NY

CITY           SKY/WX    TMP DP  RH WIND       PRES   REMARKS
BOSTON         FAIR      56  50  80 CALM      30.24R
WORCESTER      PTCLDY    58  44  60 NW6       30.24R
NANTUCKET      MOCLDY    50  46  86 CALM      30.22S
PROVIDENCE     CLOUDY    56  50  80 CALM      30.22S
HARTFORD       MOCLDY    61  41  47 CALM      30.21R
ALBANY         MOCLDY    60  39  45 N7        30.26R
NEW YORK CITY  CLOUDY    64  52  64 CALM      30.19R
$$

ANZ081-ANZ082-ANZ150-NHZ014-MEZ023>029-060600-
COASTAL MARINE OBSERVATIONS

STATION/POSITION TIME  TEMP    WIND        PRES    WAVE
                       AIR SEA DIR/SP/G            HT/PER
                 (UTC) (F)     (DEG/KT/KT) (MB)    (FT/S)
MOUNT DESERT ROC 0500   47     250/ 11/ 11   N/A
MATINICUS ROCK   0400   47     270/ 12/ 13   N/A
ISLE OF SHOALS   0400   57     230/  8/  8   N/A
JEFFREYS LEDGE   0403      47                N/A     2/ 6
CASHES LEDGE BUO 0450   47                   N/A
GEORGES BANK BUO 0450   45 44  320/  4/  6   N/A     4/ 6
$$

.............KEY..............
   WCI - WIND CHILL
   TC  - TEMPERATURE IN CELSIUS
   VSB - VISIBILITY IN MILES
   HX  - HEAT INDEX
   FAIR- INDICATES FEW OR NO CLOUDS BELOW 12,000 FT, WITH NO
         SIGNIFICANT WEATHER AND/OR OBSTRUCTIONS TO VISIBILITY.





USA.gov is the U.S. government's official web portal to all federal, state and local government web resources and services.